Weather History for PAPH - October, 2012

Change the Weather History Date:

Tuesday, October 23, 2012

  Actual Average Record
Temperature  
Mean Temperature 22 °F -  
Max Temperature 30 °F 38 °F 48 °F (2002)
Min Temperature 15 °F 28 °F 15 °F (2012)
Degree Days  
Heating Degree Days 42    
Moisture  
Dew Point 19 °F    
Average Humidity 77    
Maximum Humidity 93    
Minimum Humidity 56    
Precipitation  
Precipitation 0.02 in - - ()
Sea Level Pressure  
Sea Level Pressure 30.28 in    
Wind  
Wind Speed 14 mph (NE)    
Max Wind Speed 21 mph    
Max Gust Speed 25 mph    
Visibility 10 miles    
Events      
Averages and records for this station are not official NWS values.
T = Trace of Precipitation, MM = Missing Value Source: NWS Daily Summary

Daily Weather History Graph

Daily Weather History Graph

Search for Another Location

Airport or City:

Trip Planner

Search our weather history database for the weather conditions in past years. The results will help you decide how hot, cold, wet, or windy it might be!

Date:

Astronomy

Oct. 23, 2012 Rise Set
Actual Time 9:26 AM AKDT 7:09 PM AKDT
Civil Twilight 8:46 AM AKDT 7:49 PM AKDT
Nautical Twilight 8:02 AM AKDT 8:33 PM AKDT
Astronomical Twilight 7:18 AM AKDT 9:17 PM AKDT
Moon 4:57 PM AKDT (10/23) 2:24 AM AKDT (10/23)
Length of Visible Light 11h 02m
Length of Day
9h 43m
Waxing Gibbous, 68% of the Moon is Illuminated
Oct 23
Waxing Gibbous
Oct 29
Full
Nov 6
Last Quarter
Nov 13
New
Nov 20
First Quarter

Hourly Weather History & Observations

Time (AKDT) Temp. Windchill Dew Point Humidity Pressure Visibility Wind Dir Wind Speed Gust Speed Precip Events Conditions
12:16 AM 32.0 °F 23.6 °F 28.4 °F 87% 30.35 in 10.0 mi NE 10.4 mph - N/A   Overcast
12:36 AM 33.8 °F 26.4 °F 28.4 °F 81% 30.34 in 10.0 mi NE 9.2 mph - N/A   Mostly Cloudy
12:56 AM 32.0 °F 23.6 °F 28.4 °F 87% 30.34 in 10.0 mi NE 10.4 mph - N/A   Partly Cloudy
1:16 AM 32.0 °F 22.5 °F 26.6 °F 80% 30.34 in 10.0 mi NE 12.7 mph - N/A   Clear
1:36 AM 32.0 °F 23.0 °F 26.6 °F 80% 30.34 in 10.0 mi NE 11.5 mph - N/A   Clear
1:56 AM 32.0 °F 23.6 °F 26.6 °F 80% 30.34 in 10.0 mi NE 10.4 mph - N/A   Clear
2:16 AM 30.2 °F 21.3 °F 26.6 °F 86% 30.34 in 10.0 mi NE 10.4 mph - N/A   Clear
2:36 AM 30.2 °F 20.2 °F 26.6 °F 86% 30.33 in 10.0 mi NE 12.7 mph - N/A   Clear
2:56 AM 30.2 °F 19.3 °F 28.4 °F 93% 30.32 in 10.0 mi NE 15.0 mph - N/A   Clear
3:16 AM 30.2 °F 19.3 °F 26.6 °F 86% 30.32 in 10.0 mi NE 15.0 mph - N/A   Partly Cloudy
3:36 AM 30.2 °F 19.3 °F 26.6 °F 86% 30.32 in 10.0 mi NE 15.0 mph - N/A   Partly Cloudy
3:56 AM 30.2 °F 19.8 °F 24.8 °F 80% 30.32 in 10.0 mi ENE 13.8 mph - N/A   Mostly Cloudy
4:16 AM 30.2 °F 19.8 °F 24.8 °F 80% 30.32 in 10.0 mi ENE 13.8 mph - N/A   Mostly Cloudy
4:36 AM 30.2 °F 19.3 °F 24.8 °F 80% 30.31 in 10.0 mi ENE 15.0 mph - N/A   Scattered Clouds
4:56 AM 28.4 °F 16.2 °F 24.8 °F 86% 30.31 in 10.0 mi ENE 17.3 mph 21.9 mph N/A   Partly Cloudy
5:16 AM 28.4 °F 16.6 °F 23.0 °F 80% 30.31 in 10.0 mi ENE 16.1 mph - N/A   Clear
5:36 AM 28.4 °F 16.2 °F 21.2 °F 74% 30.30 in 10.0 mi ENE 17.3 mph - N/A   Clear
5:56 AM 28.4 °F 16.6 °F 21.2 °F 74% 30.31 in 10.0 mi NE 16.1 mph - N/A   Clear
6:16 AM 28.4 °F 17.0 °F 21.2 °F 74% 30.31 in 10.0 mi ENE 15.0 mph - N/A   Clear
6:36 AM 26.6 °F 13.8 °F 21.2 °F 80% 30.30 in 10.0 mi ENE 17.3 mph 21.9 mph N/A   Clear
6:56 AM 26.6 °F 13.8 °F 19.4 °F 74% 30.30 in 10.0 mi ENE 17.3 mph - N/A   Clear
7:16 AM 26.6 °F 13.1 °F 21.2 °F 80% 30.29 in 10.0 mi ENE 19.6 mph - N/A   Clear
7:36 AM 26.6 °F 13.8 °F 19.4 °F 74% 30.29 in 10.0 mi ENE 17.3 mph 23.0 mph N/A   Clear
7:56 AM 26.6 °F 12.7 °F 19.4 °F 74% 30.28 in 10.0 mi ENE 20.7 mph - N/A   Clear
8:16 AM 26.6 °F 13.4 °F 19.4 °F 74% 30.29 in 10.0 mi ENE 18.4 mph 24.2 mph N/A   Clear
8:36 AM 26.6 °F 14.7 °F 17.6 °F 69% 30.30 in 10.0 mi NE 15.0 mph 18.4 mph N/A   Clear
8:56 AM 24.8 °F 12.4 °F 17.6 °F 74% 30.29 in 10.0 mi NE 15.0 mph - N/A   Clear
9:16 AM 24.8 °F 11.5 °F 17.6 °F 74% 30.29 in 10.0 mi ENE 17.3 mph - N/A   Clear
9:36 AM 24.8 °F 13.4 °F 17.6 °F 74% 30.29 in 10.0 mi NE 12.7 mph - N/A   Clear
9:56 AM 24.8 °F 11.1 °F 17.6 °F 74% 30.29 in 10.0 mi ENE 18.4 mph 25.3 mph N/A   Mostly Cloudy
10:16 AM 26.6 °F 13.4 °F 17.6 °F 69% 30.29 in 10.0 mi ENE 18.4 mph - N/A   Overcast
10:36 AM 26.6 °F 13.8 °F 17.6 °F 69% 30.28 in 10.0 mi ENE 17.3 mph - N/A   Overcast
10:56 AM 26.6 °F 14.3 °F 17.6 °F 69% 30.28 in 10.0 mi ENE 16.1 mph - N/A   Scattered Clouds
11:16 AM 26.6 °F 13.8 °F 19.4 °F 74% 30.27 in 10.0 mi ENE 17.3 mph - N/A   Partly Cloudy
11:36 AM 26.6 °F 14.3 °F 21.2 °F 80% 30.28 in 10.0 mi ENE 16.1 mph - N/A   Scattered Clouds
11:56 AM 26.6 °F 13.8 °F 21.2 °F 80% 30.27 in 10.0 mi NE 17.3 mph - N/A   Partly Cloudy
12:16 PM 26.6 °F 13.8 °F 19.4 °F 74% 30.27 in 10.0 mi NE 17.3 mph - N/A   Mostly Cloudy
12:36 PM 26.6 °F 12.7 °F 19.4 °F 74% 30.27 in 10.0 mi NE 20.7 mph 25.3 mph N/A   Mostly Cloudy
12:56 PM 26.6 °F 12.7 °F 19.4 °F 74% 30.26 in 10.0 mi NE 20.7 mph 25.3 mph N/A   Clear
1:16 PM 26.6 °F 13.4 °F 19.4 °F 74% 30.26 in 10.0 mi NE 18.4 mph 23.0 mph N/A   Clear
1:36 PM 26.6 °F 13.4 °F 19.4 °F 74% 30.26 in 10.0 mi NE 18.4 mph - N/A   Clear
1:56 PM 26.6 °F 13.8 °F 19.4 °F 74% 30.26 in 10.0 mi NE 17.3 mph 24.2 mph N/A   Clear
2:16 PM 26.6 °F 13.8 °F 17.6 °F 69% 30.25 in 10.0 mi NE 17.3 mph - N/A   Clear
2:36 PM 24.8 °F 12.4 °F 17.6 °F 74% 30.26 in 10.0 mi NNE 15.0 mph - N/A   Clear
2:56 PM 26.6 °F 13.4 °F 17.6 °F 69% 30.25 in 10.0 mi NNE 18.4 mph - N/A   Clear
3:16 PM 26.6 °F 14.7 °F 17.6 °F 69% 30.24 in 10.0 mi NNE 15.0 mph - N/A   Clear
3:36 PM 24.8 °F 11.5 °F 15.8 °F 69% 30.24 in 10.0 mi NNE 17.3 mph - N/A   Clear
3:56 PM 24.8 °F 12.9 °F 15.8 °F 69% 30.23 in 10.0 mi NE 13.8 mph - N/A   Clear
4:16 PM 24.8 °F 11.9 °F 14.0 °F 64% 30.23 in 10.0 mi NNE 16.1 mph - N/A   Clear
4:36 PM 24.8 °F 12.4 °F 14.0 °F 64% 30.23 in 10.0 mi NNE 15.0 mph - N/A   Clear
4:56 PM 24.8 °F 11.9 °F 15.8 °F 69% 30.23 in 10.0 mi NE 16.1 mph - N/A   Clear
5:16 PM 23.0 °F 9.6 °F 15.8 °F 74% 30.23 in 10.0 mi NE 16.1 mph - N/A   Clear
5:36 PM 23.0 °F 9.2 °F 14.0 °F 68% 30.22 in 10.0 mi NE 17.3 mph - N/A   Clear
5:56 PM 21.2 °F 7.8 °F 15.8 °F 80% 30.23 in 10.0 mi NE 15.0 mph - N/A   Clear
6:16 PM 21.2 °F 7.8 °F 15.8 °F 80% 30.23 in 10.0 mi NE 15.0 mph - N/A   Clear
6:36 PM 21.2 °F 7.8 °F 15.8 °F 80% 30.24 in 10.0 mi NE 15.0 mph - N/A   Clear
6:56 PM 21.2 °F 8.9 °F 15.8 °F 80% 30.24 in 10.0 mi NE 12.7 mph - N/A   Clear
7:16 PM 19.4 °F 7.2 °F 15.8 °F 86% 30.24 in 10.0 mi NE 11.5 mph - N/A   Clear
7:36 PM 19.4 °F 7.2 °F 14.0 °F 80% 30.25 in 10.0 mi NE 11.5 mph - N/A   Clear
7:56 PM 19.4 °F 6.0 °F 14.0 °F 80% 30.25 in 10.0 mi NE 13.8 mph - N/A   Clear
8:16 PM 17.6 °F 3.2 °F 14.0 °F 86% 30.24 in 10.0 mi NE 15.0 mph - N/A   Clear
8:36 PM 17.6 °F 3.2 °F 12.2 °F 79% 30.24 in 10.0 mi NE 15.0 mph - N/A   Clear
8:56 PM 17.6 °F 4.3 °F 10.4 °F 73% 30.24 in 10.0 mi NE 12.7 mph - N/A   Clear
9:16 PM 17.6 °F 3.2 °F 12.2 °F 79% 30.24 in 10.0 mi ENE 15.0 mph - N/A   Clear
9:36 PM 19.4 °F 5.5 °F 12.2 °F 74% 30.24 in 10.0 mi ENE 15.0 mph - N/A   Clear
9:56 PM 17.6 °F 3.2 °F 12.2 °F 79% 30.25 in 10.0 mi NE 15.0 mph - N/A   Clear
10:16 PM 17.6 °F 5.0 °F 14.0 °F 86% 30.25 in 10.0 mi ENE 11.5 mph - N/A   Clear
10:36 PM 17.6 °F 3.7 °F 12.2 °F 79% 30.26 in 10.0 mi ENE 13.8 mph - N/A   Clear
10:56 PM 17.6 °F 3.2 °F 10.4 °F 73% 30.26 in 10.0 mi NE 15.0 mph - N/A   Clear
11:16 PM 15.8 °F 1.4 °F 10.4 °F 79% 30.26 in 10.0 mi NE 13.8 mph - 0.01 in   Clear
11:36 PM 15.8 °F 0.9 °F 10.4 °F 79% 30.26 in 10.0 mi NE 15.0 mph - 0.02 in   Clear
11:56 PM 15.8 °F 0.3 °F 10.4 °F 79% 30.26 in 10.0 mi NE 16.1 mph - 0.02 in   Partly Cloudy